Regional Weather Roundup
Issued by NWS

Home | Current Version | Previous Version | Graphics & Text | Print | Product List | Glossary On
Versions: 1 2 3 4 5 6 7 8 9 10 11 12 13 14 15 16 17 18 19 20 21 22 23 24 25 26 27 28 29 30 31 32 33 34 35 36 37 38 39 40 41 42 43 44 45 46 47 48 49 50
000
ASUS43 KDTX 190510
RWRMI
MICHIGAN HOURLY REGIONAL WEATHER ROUNDUP
NATIONAL WEATHER SERVICE DETROIT/PONTIAC MI
100 AM EDT THU OCT 19 2017

NOTE: "FAIR" INDICATES FEW OR NO CLOUDS BELOW 12,000 FEET WITH NO
SIGNIFICANT WEATHER AND/OR OBSTRUCTION TO VISIBILITY.

MIZ047>049-052>055-059>063-066>070-074>076-081>083-190600-
SOUTHEAST LOWER MICHIGAN

CITY           SKY/WX    TMP DP  RH WIND       PRES   REMARKS
ADRIAN         CLEAR     49  41  74 SW3       30.13R
ALMA           PTCLDY    55  40  58 SW12G18   30.02F
ANN ARBOR      CLEAR     46  41  82 S5        30.10S
BAD AXE        CLEAR     55  39  56 SW10      30.01F
CARO           CLEAR     59  39  48 SW12G22   30.01F
DETROIT CITY   CLEAR     58  41  53 SW12      30.10S
DETROIT        CLEAR     52  42  69 S8        30.11F
FLINT          CLEAR     57  40  52 SW12      30.05F
GROSSE ILE     CLEAR     58  42  54 SW10      30.10F
HILLSDALE      CLEAR     54  41  62 SW8       30.10F
HOWELL         CLEAR     54  41  62 SW7       30.07F

CITY           SKY/WX    TMP DP  RH WIND       PRES   REMARKS
JACKSON        CLEAR     57  42  57 SW13      30.09F
LAMBERTVILLE   CLEAR     57  42  56 SW6       30.12F
LANSING        CLEAR     57  40  52 SW12      30.06F
LAPEER         FAIR      57  40  52 SW9       30.05F
MASON          CLEAR     58  42  54 SW7       30.07F
MONROE         CLEAR     57  40  53 SW7       30.11S
MT. CLEMENS    CLEAR     58  42  54 SW10      30.07F
PONTIAC        CLEAR     56  42  59 SW8       30.07F
PORT HOPE        N/A     59  40  49 SW9G18    29.96F
PORT HURON     CLEAR     55  46  71 S5        30.08S
TRI CITIES     CLEAR     60  42  51 SW17G30   30.01F
MIDLAND        FAIR      57  41  55 SW13G18   29.99S
TROY           CLEAR     55  40  55 SW7       30.10F
SAGINAW HB     CLEAR     55  41  58 S17       30.01S
$$
MIZ043>046-050>051-056>058-064>065-071>073-077>080-190600-
SOUTHWEST LOWER MICHIGAN

CITY           SKY/WX    TMP DP  RH WIND       PRES   REMARKS
BATTLE CREEK   CLEAR     55  44  66 SW13      30.08F
BENTON HARBOR  CLEAR     57  43  59 S8        30.07S
BIG RAPIDS     CLEAR     58  42  55 SW10G22   29.97F
COLDWATER      CLEAR     54  41  61 SW7       30.10F
FREMONT        FAIR      60  48  65 SW16G23   29.98F
HOLLAND        CLEAR     60  45  57 SW15G24   30.04F
GRAND RAPIDS   CLOUDY    57  44  62 S14       30.03F
IONIA          FAIR      57  42  57 SW13G18   30.03F
KALAMAZOO      PTCLDY    52  42  69 S8        30.08F
LUDINGTON      CLEAR     61  49  63 SW21G28   29.92F
MARSHALL       CLEAR     54  42  62 SW5       30.08F
MOUNT PLEASANT CLOUDY    59  40  48 SW13G18   29.98F
MUSKEGON       CLEAR     62  52  69 SW17G25   30.00F
SOUTH HAVEN    CLEAR     60  44  55 SW14      30.05F
$$
MIZ016>042-190600-
NORTHERN LOWER MICHIGAN

CITY           SKY/WX    TMP DP  RH WIND       PRES   REMARKS
ALPENA         CLOUDY    61  41  47 SW12G24   29.88F
BEAVER ISLAND  CLEAR     62  51  66 SW20G30   29.80S
BELLAIRE       CLEAR     61  43  50 S7G16     29.88S
CADILLAC       CLEAR     58  43  56 SW13G20   29.92F
CHARLEVOIX     PTCLDY    61  46  56 S15G22    29.87R
FRANKFORT      CLEAR     64  51  63 S20G28    29.89R
GAYLORD        CLEAR     58  40  51 SW20G26   29.88F
GRAYLING       CLEAR     57  40  53 SW8G16    29.92F
HARBOR SPRINGS CLEAR     62  43  50 SW17G32   29.82S
HOUGHTON LAKE  CLEAR     57  41  55 SW15      29.94F
MANISTEE       CLEAR     64  47  53 SW16G23   29.90F
OSCODA         CLOUDY    58  39  49 SW16G23   29.93F
PELLSTON       PTCLDY    62  44  51 SW17G28   29.82F
ROGERS CITY    CLEAR     60  41  48 SW18G25   29.83F
TRAVERSE CITY  CLEAR     63  44  50 SW9       29.86S
$$
MIZ007>008-015-190600-
EASTERN UPPER MICHIGAN

CITY           SKY/WX    TMP DP  RH WIND       PRES   REMARKS
KINROSS        PTCLDY    61  49  64 SW15G29   29.77F
MACKINAC ISLAN MOCLDY    64  43  46 SW22G32   29.78F
NEWBERRY       CLEAR     57  51  80 SW14G20   29.76S
S. S. MARIE    CLOUDY    61  48  62 SW18G28   29.74F
MUNISING         N/A     58  49  72 W6        29.78R
$$
MIZ004>006-011>014-085-190600-
CENTRAL UPPER MICHIGAN

CITY           SKY/WX    TMP DP  RH WIND       PRES   REMARKS
MANISTIQUE     PTCLDY    55  49  81 S10       29.78S
ESCANABA       CLOUDY    58  48  69 SW8       29.80R
MENOMINEE      PTCLDY    61  47  59 W8        29.84R
SAWYER-GWINN   CLEAR     55  27  33 W8        29.82R
$$
MIZ001>003-009>011-084-190600-
WESTERN UPPER MICHIGAN

CITY           SKY/WX    TMP DP  RH WIND       PRES   REMARKS
IRON MOUNTAIN  CLEAR     58  29  33 W10       29.83R
HOUGHTON       LGT RAIN  54  29  38 W26G36    29.76R
COPPER HARBOR    N/A     56  34  43 NW13G25   29.74R
IRONWOOD       CLEAR     49  20  31 W12       29.88R
$$

ABBREVIATIONS USED IN REMARKS
   TC - TEMPERATURE IN CELSIUS
  WCI - WIND CHILL INDEX
   HX - HEAT INDEX
  VSB - VISIBILITY




USA.gov is the U.S. government's official web portal to all federal, state and local government web resources and services.